カタログに戻る

GHOST RIDER

運用中科学SSO
NORAD 68439·PAYLOAD· XX
この衛星名は、まだ公式ソースで確認されていません。

打ち上げ Mar 30, 2026 から Vandenberg Space Force Base

Loading…

次のパス (今後24時間)

TLE

最新Source: Space-Track

元期: Sep 14, 2026, 08:20 UTC

1 68439U 26067Z   26257.34753410  .00010959  00000-0  48635-3 0  9993
2 68439  97.4602 214.8736 0004702  98.4219 261.7550 15.21734108 25495

AllMySatでGHOST RIDERをリアルタイム追跡

Download on the App Store